Regional Weather Roundup
Issued by NWS State College, PA

Home | Current Version | Previous Version | Graphics & Text | Print | Product List | Glossary Off
Versions: 1 2 3 4 5 6 7 8 9 10 11 12 13 14 15 16 17 18 19 20 21 22 23 24 25 26 27 28 29 30 31 32 33 34 35 36 37 38 39 40 41 42 43 44 45 46 47 48 49 50

000
ASUS41 KCTP 122103
RWRCTP

REGIONAL WEATHER ROUNDUP
NATIONAL WEATHER SERVICE STATE COLLEGE PA
400 PM EST FRI FEB 12 2016

Note: "fair" indicates few or no clouds below 12,000 feet with no
significant weather and/or obstructions to visibility.

* = STATION THAT DOES NOT REPORT PRECIPITATION /E.G. RAIN...SNOW...ETC/
    THUNDER OR FOG.

PAZ002>004-007>009-013>016-020>023-029>032-122200-
WESTERN PENNSYLVANIA

CITY           SKY/WX    TMP DP  RH WIND       PRES   REMARKS
ERIE           CLOUDY    22  12  65 SW13      29.90F WCI  10
MEADVILLE      LGT SNOW  18  11  74 SW8       29.88F WCI   8
FRANKLIN*      CLOUDY    18   9  68 SW9       29.91S WCI   6
NEW CASTLE     LGT SNOW  20  13  74 SW7       29.95F WCI  11
BEAVER COUNTY  LGT SNOW  19  14  79 SW8       29.94F WCI   9
BUTLER*        CLOUDY    18  10  73 SW7       29.97F WCI   8
PITTSBURGH INT LGT SNOW  19  12  74 SW6       29.95F WCI  11
PITTSBURGH     LGT SNOW  20  13  74 S8        29.94F HAZE    WCI  10
INDIANA*       CLOUDY    18  12  79 SW9       29.97S FOG     WCI   6
LATROBE        LGT SNOW  18  16  93 SW9       29.98F VSB 1   WCI   6
WASHINGTON CO* CLOUDY    19  12  73 SW7       29.96F WCI  10
$$

PAZ004>006-010>012-017>019-024>028-033>037-041-042-045-046-049>053-122200-
CENTRAL PENNSYLVANIA

CITY           SKY/WX    TMP DP  RH WIND       PRES   REMARKS
BRADFORD       LGT SNOW  14   6  70 SW13G20   29.81F WCI   0
DUBOIS         CLOUDY    15   8  73 SW9       29.86F HAZE    WCI   3
CLEARFIELD     LGT SNOW  17  10  74 SW8       29.91F WCI   7
JOHNSTOWN      SNOW      14   7  73 W7        29.85F VSB 1/2 WCI   4
ALTOONA        LGT SNOW  19  11  70 SW8       29.93F WCI   9
STATE COLLEGE  LGT SNOW  18  12  79 SW9       29.94F WCI   6
WILLIAMSPORT   LGT SNOW  21  10  62 VRB3      30.00F
SELINSGROVE    CLOUDY    22   6  50 W7        30.02F WCI  13
FT INDIANTOWN  CLOUDY    21   6  51 W7        30.02F WCI  12
CAPITAL CITY   CLOUDY    23   6  48 SW7       30.03F WCI  15
HARRISBURG     CLOUDY    24   8  50 SW9       30.03F WCI  14
YORK           CLOUDY    23   8  52 SW6       30.02F
$$

PAZ038>040-043-044-047-048-054-055-060>062-067>071-122200-
EASTERN PENNSYLVANIA

CITY           SKY/WX    TMP DP  RH WIND       PRES   REMARKS
SCRANTON       CLOUDY    19   6  57 W10       29.95F WCI   7
MOUNT POCONO   CLOUDY    14   4  64 S10       29.88F WCI   1
ALLENTOWN      CLOUDY    22   6  50 SW8       30.03F WCI  12
QUAKERTOWN*    CLOUDY    21   5  49 W8        30.04F WCI  12
READING        CLOUDY    22   5  48 SW8       30.04F WCI  12
LANCASTER      CLOUDY    22   6  50 SW6       30.03F WCI  14
COATESVILLE    PTCLDY    21   5  49 VRB6      30.04F WCI  14
POTTSTOWN      CLOUDY    22   4  46 SW6       30.06F WCI  14
BLUE BELL        N/A     23   5  46 W6        30.05F
DOYLESTOWN     CLOUDY    21   1  41 W7        30.04F WCI  12
WILLOW GROVE   NOT AVBL
NORTH PHILA    CLOUDY    25   4  40 W14       30.09F WCI  13
PHILADELPHIA   NOT AVBL
$$



USA.gov is the U.S. government's official web portal to all federal, state and local government web resources and services.